Location: Aldenham
(51.6667°N, 0.3500°W)
Time: 03:31:11
(UTC+00:00)

Altair - Pass Details

Date: 17 February 2026
Orbit: 1502 x 1682 km, 47.2° (Epoch: 7 March)

Event Time Altitude Azimuth Distance (km) Brightness Sun altitude
Rises 07:28:37 0° 261° (W) 4,658 9.5 1.6°
Reaches altitude 10° 07:31:37 10° 259° (WSW) 3,692 9.0 2.1°
Maximum altitude 07:40:51 69° 179° (S) 1,656 8.0 3.4°
Drops below altitude 10° 07:50:27 10° 99° (E) 3,826 11.4 4.7°
Sets 07:53:37 0° 97° (E) 4,836 11.7 5.2°
